Location: Beuvrequen
(50.8014°N, 1.6652°E)
Time: 02:35:11
(UTC+00:00)

Cosmos 2369 Rocket - Pass Details

Date: 16 October 2021
Orbit: 829 x 852 km, 71.0° (Epoch: 28 November)

Event Time Altitude Azimuth Distance (km) Brightness Sun altitude
Rises 17:35:24 0° 272° (W) 3,382 7.7 -6.5°
Reaches altitude 10° 17:38:52 10° 293° (WNW) 2,447 5.7 -7.1°
Maximum altitude 17:42:14 16° 331° (NNW) 2,056 4.6 -7.6°
Drops below altitude 10° 17:45:37 10° 8° (N) 2,448 4.5 -8.2°
Sets 17:49:06 0° 30° (NNE) 3,384 5.0 -8.7°
